Find Starlink 38231

NORAD ID: 100551 Int'l Des: 2026-200 Owner: SPXS Country: US Constellation: starlink operational

現在のビュー

3D地球を読み込み中...

About Starlink 38231

Starlink 38231 (NORAD 100551) is a starlink constellation satellite launched Sep 2, 2026 by SPXS of US. with a mass of 575.00 kg.

次回通過

Passes for default location (London). Set your location on the main map for personalized predictions.

高度履歴

Loading altitude history...

軌道要素

1 A0551U 26200T 26263.94097698 .00145470 00000-0 85713-3 0 9990
2 A0551 69.9993 134.1084 0004366 288.1247 71.9477 15.77605027 2951
Epoch: Sep 20, 2026 • Age: 7 hours

現在のステータス

高度 350.3 km
遠地点 / 近地点 N/A
速度 7.70 km/s
衛星直下点 63.88°N, 171.2°W
打ち上げ日 Sep 2, 2026
運用期間 18 days
タイプ internet

技術仕様

分類 Payload
質量 575.00 kg
乾燥質量 530.00 kg
長さ 0.30 m
スパン 29.00 m
形状 ? Box + pan
製造者 SPXS
バスタイプ Starlink V2MO
フェーズステータス In Orbit
所有者/国 SPXS/US

Most Searched